H1 CPF 2 NER 2024 8 8 9 221 01 glonass106 H2 0705201 9106 32275 2024 8 8 0 0 0 2024 8 11 23 45 0 900 1 1 0 0 0 1 H9 10 0 60530 0.00000 0 -16663862.305 2578288.919 19131506.711 10 0 60530 900.00000 0 -18818547.500 1949753.572 17099092.678 10 0 60530 1800.00000 0 -20754807.771 1560526.907 14734299.007 10 0 60530 2700.00000 0 -22413541.934 1383911.200 12083062.954 10 0 60530 3600.00000 0 -23744053.320 1382770.255 9196905.337 10 0 60530 4500.00000 0 -24706077.789 1511329.493 6131928.075 10 0 60530 5400.00000 0 -25271392.050 1717346.696 2947720.667 10 0 60530 6300.00000 0 -25424934.500 1944560.787 -293802.854 10 0 60530 7200.00000 0 -25165391.353 2135314.081 -3529613.258 10 0 60530 8100.00000 0 -24505223.382 2233236.006 -6696797.527 10 0 60530 9000.00000 0 -23470132.357 2185873.613 -9733787.582 10 0 60530 9900.00000 0 -22097989.960 1947156.533 -12581561.635 10 0 60530 10800.00000 0 -20437274.712 1479591.165 -15184794.198 10 0 60530 11700.00000 0 -18545083.155 756090.513 -17492932.003 10 0 60530 12600.00000 0 -16484799.282 -238638.293 -19461174.798 10 0 60530 13500.00000 0 -14323520.352 -1507207.901 -21051342.156 10 0 60530 14400.00000 0 -12129347.052 -3039203.965 -22232609.944 10 0 60530 15300.00000 0 -9968651.262 -4811392.824 -22982102.760 10 0 60530 16200.00000 0 -7903435.174 -6788475.516 -23285331.629 10 0 60530 17100.00000 0 -5988891.263 -8924357.282 -23136469.192 10 0 60530 18000.00000 0 -4271263.954 -11163880.187 -22538457.696 10 0 60530 18900.00000 0 -2786100.979 -13444947.352 -21502948.164 10 0 60530 19800.00000 0 -1556966.003 -15700951.024 -20050072.151 10 0 60530 20700.00000 0 -594664.933 -17863404.045 -18208050.529 10 0 60530 21600.00000 0 102983.176 -19864665.778 -16012646.697 10 0 60530 22500.00000 0 550822.296 -21640649.494 -13506474.426 10 0 60530 23400.00000 0 775497.422 -23133398.758 -10738173.374 10 0 60530 24300.00000 0 814091.552 -24293425.682 -7761467.819 10 0 60530 25200.00000 0 712319.829 -25081713.497 -4634126.478 10 0 60530 26100.00000 0 522357.553 -25471299.865 -1416843.394 10 0 60530 27000.00000 0 300394.279 -25448374.470 1827938.538 10 0 60530 27900.00000 0 104017.764 -25012844.963 5037238.586 10 0 60530 28800.00000 0 -10461.319 -24178347.528 8148759.959 10 0 60530 29700.00000 0 9369.647 -22971701.336 11102098.585 10 0 60530 30600.00000 0 209569.798 -21431829.650 13839915.203 10 0 60530 31500.00000 0 627659.221 -19608192.624 16309047.919 10 0 60530 32400.00000 0 1290796.122 -17558797.228 18461543.619 10 0 60530 33300.00000 0 2214394.423 -15347867.304 20255588.357 10 0 60530 34200.00000 0 3401240.945 -13043270.871 21656318.822 10 0 60530 35100.00000 0 4841150.422 -10713811.728 22636499.434 10 0 60530 36000.00000 0 6511174.100 -8426497.943 23177052.165 10 0 60530 36900.00000 0 8376354.553 -6243900.599 23267429.005 10 0 60530 37800.00000 0 10390996.517 -4221712.370 22905819.892 10 0 60530 38700.00000 0 12500402.021 -2406607.017 22099191.977 10 0 60530 39600.00000 0 14642998.537 -834488.495 20863159.152 10 0 60530 40500.00000 0 16752772.354 470797.962 19221683.936 10 0 60530 41400.00000 0 18761906.351 1498239.601 17206616.888 10 0 60530 42300.00000 0 20603512.435 2249883.045 14857081.915 10 0 60530 43200.00000 0 22214344.605 2740505.561 12218718.812 10 0 60530 44100.00000 0 23537379.039 2996745.260 9342797.292 10 0 60530 45000.00000 0 24524152.746 3055727.668 6285219.541 10 0 60530 45900.00000 0 25136762.302 2963247.440 3105430.695 10 0 60530 46800.00000 0 25349438.219 2771582.982 -134741.294 10 0 60530 47700.00000 0 25149628.351 2537037.371 -3372293.250 10 0 60530 48600.00000 0 24538544.434 2317310.705 -6544277.640 10 0 60530 49500.00000 0 23531148.646 2168816.183 -9589032.001 10 0 60530 50400.00000 0 22155580.730 2144054.535 -12447382.209 10 0 60530 51300.00000 0 20452049.993 2289158.884 -15063795.572 10 0 60530 52200.00000 0 18471238.979 2641714.622 -17387460.956 10 0 60530 53100.00000 0 16272286.157 3228947.118 -19373274.774 10 0 60530 54000.00000 0 13920432.416 4066354.238 -20982713.864 10 0 60530 54900.00000 0 11484429.969 5156841.779 -22184578.762 10 0 60530 55800.00000 0 9033821.880 6490398.566 -22955593.518 10 0 60530 56700.00000 0 6636205.393 8044325.326 -23280851.191 10 0 60530 57600.00000 0 4354592.494 9784008.189 -23154097.117 10 0 60530 58500.00000 0 2244976.820 11664205.026 -22577845.105 10 0 60530 59400.00000 0 354207.051 13630791.415 -21563324.797 10 0 60530 60300.00000 0 -1281745.935 15622894.026 -20130261.467 10 0 60530 61200.00000 0 -2639057.336 17575322.989 -18306492.570 10 0 60530 62100.00000 0 -3706800.694 19421202.371 -16127428.275 10 0 60530 63000.00000 0 -4487154.137 21094689.469 -13635366.082 10 0 60530 63900.00000 0 -4995053.297 22533669.802 -10878672.435 10 0 60530 64800.00000 0 -5257306.659 23682315.472 -7910846.738 10 0 60530 65700.00000 0 -5311211.485 24493399.963 -4789485.559 10 0 60530 66600.00000 0 -5202729.432 24930272.428 -1575166.867 10 0 60530 67500.00000 0 -4984299.476 24968408.543 1669724.170 10 0 60530 68400.00000 0 -4712380.999 24596472.799 4882205.002 10 0 60530 69300.00000 0 -4444831.318 23816847.254 7999917.527 10 0 60530 70200.00000 0 -4238228.870 22645604.254 10962338.023 10 0 60530 71100.00000 0 -4145255.594 21111923.870 13711951.556 10 0 60530 72000.00000 0 -4212249.562 19256979.967 16195367.935 10 0 60530 72900.00000 0 -4477031.657 17132341.161 18364357.548 10 0 60530 73800.00000 0 -4967098.560 14797953.051 20176787.107 10 0 60530 74700.00000 0 -5698258.925 12319785.546 21597437.280 10 0 60530 75600.00000 0 -6673770.938 9767242.926 22598686.644 10 0 60530 76500.00000 0 -7884018.546 7210444.015 23161048.936 10 0 60530 77400.00000 0 -9306741.029 4717485.173 23273553.351 10 0 60530 78300.00000 0 -10907807.529 2351799.391 22933960.592 10 0 60530 79200.00000 0 -12642505.331 169720.747 22148810.390 10 0 60530 80100.00000 0 -14457289.147 -1781645.035 20933299.261 10 0 60530 81000.00000 0 -16291919.266 -3466155.906 19310990.474 10 0 60530 81900.00000 0 -18081899.969 -4859903.029 17313361.235 10 0 60530 82800.00000 0 -19761116.702 -5951962.203 14979195.320 10 0 60530 83700.00000 0 -21264561.841 -6744596.487 12353832.330 10 0 60530 84600.00000 0 -22531034.776 -7252902.351 9488287.716 10 0 60530 85500.00000 0 -23505702.717 -7503915.065 6438260.443 10 0 60531 0.00000 0 -24142414.155 -7535211.919 3263047.868 10 0 60531 900.00000 0 -24405667.365 -7393073.175 24387.478 10 0 60531 1800.00000 0 -24272149.739 -7130279.497 -3214747.151 10 0 60531 2700.00000 0 -23731783.700 -6803640.101 -6391377.734 10 0 60531 3600.00000 0 -22788233.762 -6471357.261 -9443751.056 10 0 60531 4500.00000 0 -21458853.514 -6190339.767 -12312544.084 10 0 60531 5400.00000 0 -19774074.545 -6013579.965 -14942020.081 10 0 60531 6300.00000 0 -17776262.961 -5987706.102 -17281112.850 10 0 60531 7200.00000 0 -15518091.582 -6150814.020 -19284417.820 10 0 60531 8100.00000 0 -13060496.127 -6530670.211 -20913070.916 10 0 60531 9000.00000 0 -10470300.844 -7143362.273 -22135498.552 10 0 60531 9900.00000 0 -7817612.679 -7992453.843 -22928024.791 10 0 60531 10800.00000 0 -5173092.293 -9068679.702 -23275324.646 10 0 60531 11700.00000 0 -2605214.993 -10350194.088 -23170715.461 10 0 60531 12600.00000 0 -177634.781 -11803362.105 -22616281.386 10 0 60531 13500.00000 0 2053239.896 -13384061.447 -21622829.019 10 0 60531 14400.00000 0 4040359.120 -15039440.437 -20209675.337 10 0 60531 15300.00000 0 5747746.582 -16710059.358 -18404272.077 10 0 60531 16200.00000 0 7151746.758 -18332326.014 -16241673.667 10 0 60531 17100.00000 0 8241753.657 -19841124.173 -13763858.681 10 0 60531 18000.00000 0 9020392.004 -21172525.289 -11018917.599 10 0 60531 18900.00000 0 9503144.584 -22266470.154 -8060122.130 10 0 60531 19800.00000 0 9717442.562 -23069308.403 -4944893.844 10 0 60531 20700.00000 0 9701257.916 -23536089.140 -1733691.821 10 0 60531 21600.00000 0 9501258.120 -23632506.369 1511159.218 10 0 60531 22500.00000 0 9170601.565 -23336417.325 4726677.550 10 0 60531 23400.00000 0 8766467.304 -22638869.450 7850446.235 10 0 60531 24300.00000 0 8347423.873 -21544592.388 10821824.177 10 0 60531 25200.00000 0 7970748.720 -20071933.650 13583122.814 10 0 60531 26100.00000 0 7689811.818 -18252240.039 16080725.449 10 0 60531 27000.00000 0 7551634.252 -16128710.036 18266127.478 10 0 60531 27900.00000 0 7594725.157 -13754764.449 20096877.461 10 0 60531 28800.00000 0 7847288.620 -11192002.654 21537400.907 10 0 60531 29700.00000 0 8325876.593 -8507828.978 22559691.079 10 0 60531 30600.00000 0 9034545.130 -5772847.346 23143853.680 10 0 60531 31500.00000 0 9964550.191 -3058131.920 23278495.005 10 0 60531 32400.00000 0 11094596.697 -432486.519 22960946.147 10 0 60531 33300.00000 0 12391631.362 2040193.987 22197318.800 10 0 60531 34200.00000 0 13812147.065 4303351.241 21002391.289 10 0 60531 35100.00000 0 15303945.014 6309879.622 19399326.648 10 0 60531 36000.00000 0 16808281.674 8023843.680 17419227.597 10 0 60531 36900.00000 0 18262310.982 9421725.801 15100536.492 10 0 60531 37800.00000 0 19601719.730 10493152.678 12488291.298 10 0 60531 38700.00000 0 20763445.522 11241070.953 9633251.583 10 0 60531 39600.00000 0 21688362.790 11681365.430 6590911.277 10 0 60531 40500.00000 0 22323823.446 11841936.827 3420417.373 10 0 60531 41400.00000 0 22625944.535 11761278.880 183415.852 10 0 60531 42300.00000 0 22561545.798 11486615.859 -3057152.194 10 0 60531 43200.00000 0 22109654.703 11071680.286 -6238280.132 10 0 60531 44100.00000 0 21262514.872 10574225.878 -9298126.403 10 0 60531 45000.00000 0 20026054.813 10053381.971 -12177221.401 10 0 60531 45900.00000 0 18419796.817 9566962.267 -14819626.561 10 0 60531 46800.00000 0 16476209.518 9168842.488 -17174022.669 10 0 60531 47700.00000 0 14239531.133 8906518.318 -19194706.057 10 0 60531 48600.00000 0 11764112.549 8818947.137 -20842473.466 10 0 60531 49500.00000 0 9112349.403 8934764.719 -22085378.782 10 0 60531 50400.00000 0 6352289.312 9270952.062 -22899347.554 10 0 60531 51300.00000 0 3555013.638 9832008.369 -23268638.072 10 0 60531 52200.00000 0 791902.203 10609664.851 -23186140.834 10 0 60531 53100.00000 0 -1868105.976 11583151.349 -22653511.240 10 0 60531 54000.00000 0 -4361143.063 12720004.619 -21681133.438 10 0 60531 54900.00000 0 -6630825.708 13977384.568 -20287916.338 10 0 60531 55800.00000 0 -8630352.196 15303843.569 -18500925.782 10 0 60531 56700.00000 0 -10324197.527 16641475.021 -16354859.869 10 0 60531 57600.00000 0 -11689337.201 17928351.507 -13891377.254 10 0 60531 58500.00000 0 -12715949.946 19101150.571 -11158291.042 10 0 60531 59400.00000 0 -13407571.371 20097858.357 -8208643.513 10 0 60531 60300.00000 0 -13780693.221 20860437.629 -5099679.190 10 0 60531 61200.00000 0 -13863826.042 21337347.982 -1891735.912 10 0 60531 62100.00000 0 -13696065.646 21485812.260 1352924.640 10 0 60531 63000.00000 0 -13325224.432 21273733.401 4571324.360 10 0 60531 63900.00000 0 -12805606.976 20681180.630 7700990.427 10 0 60531 64800.00000 0 -12195524.222 19701381.944 10681167.465 10 0 60531 65700.00000 0 -11554651.541 18341180.326 13453996.453 10 0 60531 66600.00000 0 -10941342.497 16620933.738 15965637.355 10 0 60531 67500.00000 0 -10410011.892 14573862.187 18167313.692 10 0 60531 68400.00000 0 -10008698.645 12244868.240 20016258.855 10 0 60531 69300.00000 0 -9776911.460 9688879.332 21476545.976 10 0 60531 70200.00000 0 -9743848.200 6968780.084 22519785.523 10 0 60531 71100.00000 0 -9927064.226 4153019.810 23125677.331 10 0 60531 72000.00000 0 -10331646.099 1312993.916 23282406.554 10 0 60531 72900.00000 0 -10949925.875 -1479692.854 22986875.958 10 0 60531 73800.00000 0 -11761748.629 -4155968.374 22244769.946 10 0 60531 74700.00000 0 -12735282.672 -6651927.108 21070448.831 10 0 60531 75600.00000 0 -13828339.152 -8911247.279 19486674.982 10 0 60531 76500.00000 0 -14990146.304 -10887291.330 17524175.599 10 0 60531 77400.00000 0 -16163504.341 -12544802.709 15221049.998 10 0 60531 78300.00000 0 -17287230.745 -13861128.824 12622032.351 10 0 60531 79200.00000 0 -18298793.196 -14826919.646 9777623.711 10 0 60531 80100.00000 0 -19137019.116 -15446273.343 6743109.943 10 0 60531 81000.00000 0 -19744767.248 -15736323.651 3577484.636 10 0 60531 81900.00000 0 -20071447.993 -15726287.146 342298.131 10 0 60531 82800.00000 0 -20075285.396 -15456011.545 -2899544.386 10 0 60531 83700.00000 0 -19725224.488 -14974087.321 -6085011.714 10 0 60531 84600.00000 0 -19002402.660 -14335603.414 -9152177.730 10 0 60531 85500.00000 0 -17901122.245 -13599642.956 -12041429.973 10 0 60532 0.00000 0 -16429282.788 -12826625.844 -14696631.374 10 0 60532 900.00000 0 -14608253.420 -12075610.847 -17066213.479 10 0 60532 1800.00000 0 -12472192.288 -11401672.810 -19104176.196 10 0 60532 2700.00000 0 -10066838.623 -10853464.598 -20770979.518 10 0 60532 3600.00000 0 -7447829.510 -10471067.695 -22034306.665 10 0 60532 4500.00000 0 -4678610.633 -10284221.467 -22869685.878 10 0 60532 5400.00000 0 -1828027.745 -10311005.361 -23260959.266 10 0 60532 6300.00000 0 1032301.423 -10557029.062 -23200590.379 10 0 60532 7200.00000 0 3830726.245 -11015164.245 -22689805.164 10 0 60532 8100.00000 0 6498300.353 -11665828.849 -21738564.114 10 0 60532 9000.00000 0 8971404.173 -12477811.739 -20365366.431 10 0 60532 9900.00000 0 11194145.025 -13409603.068 -18596890.064 10 0 60532 10800.00000 0 13120436.173 -14411174.559 -16467474.466 10 0 60532 11700.00000 0 14715669.588 -15426135.121 -14018455.771 10 0 60532 12600.00000 0 15957913.840 -16394171.417 -11297366.880 10 0 60532 13500.00000 0 16838588.381 -17253671.030 -8357017.571 10 0 60532 14400.00000 0 17362587.065 -17944418.020 -5254472.057 10 0 60532 15300.00000 0 17547846.737 -18410247.408 -2049943.602 10 0 60532 16200.00000 0 17424379.832 -18601546.604 1194372.522 10 0 60532 17100.00000 0 17032812.466 -18477498.084 4415505.137 10 0 60532 18000.00000 0 16422490.246 -18007968.550 7550928.678 10 0 60532 18900.00000 0 15649232.056 -17174964.189 10539776.352 10 0 60532 19800.00000 0 14772826.893 -15973590.059 13324021.201 10 0 60532 20700.00000 0 13854379.589 -14412472.345 15849601.993 10 0 60532 21600.00000 0 12953617.460 -12513624.675 18067472.072 10 0 60532 22500.00000 0 12126271.477 -10311762.995 19934550.928 10 0 60532 23400.00000 0 11421642.289 -7853096.520 21414560.154 10 0 60532 24300.00000 0 10880453.531 -5193644.049 22478727.821 10 0 60532 25200.00000 0 10533082.722 -2397144.691 23106347.910 10 0 60532 26100.00000 0 10398244.185 467351.111 23285184.075 10 0 60532 27000.00000 0 10482179.472 3328111.131 23011710.061 10 0 60532 27900.00000 0 10778389.520 6113463.143 22291182.003 10 0 60532 28800.00000 0 11267920.128 8754535.832 21137540.980 10 0 60532 29700.00000 0 11920189.128 11187885.664 19573147.277 10 0 60532 30600.00000 0 12694320.894 13357901.075 17628350.986 10 0 60532 31500.00000 0 13540932.406 15218884.393 15340906.656 10 0 60532 32400.00000 0 14404295.931 16736725.152 12755242.809 10 0 60532 33300.00000 0 15224787.292 17890095.400 9921599.999 10 0 60532 34200.00000 0 15941516.336 18671117.406 6895053.926 10 0 60532 35100.00000 0 16495028.246 19085476.386 3734442.548 10 0 60532 36000.00000 0 16829961.025 19151974.183 501218.265 10 0 60532 36900.00000 0 16897546.146 18901543.442 -2741752.000 10 0 60532 37800.00000 0 16657845.826 18375764.763 -5931414.818 10 0 60532 38700.00000 0 16081631.483 17624950.331 -9005761.765 10 0 60532 39600.00000 0 15151823.181 16705875.898 -11905039.648 10 0 60532 40500.00000 0 13864428.473 15679257.826 -14572915.296 10 0 60532 41400.00000 0 12228940.365 14607082.464 -16957571.807 10 0 60532 42300.00000 0 10268176.984 13549901.174 -19012714.727 10 0 60532 43200.00000 0 8017569.148 12564205.408 -20698468.687 10 0 60532 44100.00000 0 5523925.111 11699992.476 -21982147.484 10 0 60532 45000.00000 0 2843723.651 10998624.282 -22838883.160 10 0 60532 45900.00000 0 41006.190 10491068.618 -23252102.622 10 0 60532 46800.00000 0 -2815044.935 10196596.313 -23213843.262 10 0 60532 47700.00000 0 -5652741.937 10121988.267 -22724902.149 10 0 60532 48600.00000 0 -8400632.145 10261284.940 -21794816.399 10 0 60532 49500.00000 0 -10990230.736 10596088.206 -20441675.447 10 0 60532 50400.00000 0 -13358633.126 11096402.417 -18691768.922 10 0 60532 51300.00000 0 -15450899.512 11721979.010 -16579076.847 10 0 60532 52200.00000 0 -17222113.429 12424107.977 -14144611.705 10 0 60532 53100.00000 0 -18639029.693 13147780.832 -11435624.778 10 0 60532 54000.00000 0 -19681243.993 13834134.071 -8504691.696 10 0 60532 54900.00000 0 -20341836.178 14423070.222 -5408694.530 10 0 60532 55800.00000 0 -20627461.214 14855946.030 -2207719.949 10 0 60532 56700.00000 0 -20557884.693 15078214.179 1036105.382 10 0 60532 57600.00000 0 -20164983.187 15041906.964 4259819.544 10 0 60532 58500.00000 0 -19491252.000 14707856.637 7400846.741 10 0 60532 59400.00000 0 -18587883.633 14047558.254 10398211.433 10 0 60532 60300.00000 0 -17512498.199 13044595.755 13193721.513 10 0 60532 61200.00000 0 -16326621.580 11695570.219 15733097.398 10 0 60532 62100.00000 0 -15093017.667 10010490.267 17967025.125 10 0 60532 63000.00000 0 -13872986.979 8012606.980 19852113.068 10 0 60532 63900.00000 0 -12723745.211 5737698.979 21351733.896 10 0 60532 64800.00000 0 -11695991.782 3232836.234 22436735.670 10 0 60532 65700.00000 0 -10831770.294 554672.821 23086008.578 10 0 60532 66600.00000 0 -10162710.592 -2232661.491 23286896.474 10 0 60532 67500.00000 0 -9708726.014 -5059984.305 23035445.357 10 0 60532 68400.00000 0 -9477220.372 -7855698.664 22336483.922 10 0 60532 69300.00000 0 -9462837.947 -10548537.390 21203534.354 10 0 60532 70200.00000 0 -9647766.964 -13070300.430 19658554.697 10 0 60532 71100.00000 0 -10002583.894 -15358471.969 17731517.274 10 0 60532 72000.00000 0 -10487603.104 -17358608.847 15459830.717 10 0 60532 72900.00000 0 -11054675.086 -19026401.070 12887616.275 10 0 60532 73800.00000 0 -11649357.367 -20329318.702 10064851.966 10 0 60532 74700.00000 0 -12213366.297 -21247776.518 7046400.913 10 0 60532 75600.00000 0 -12687205.764 -21775767.974 3890942.727 10 0 60532 76500.00000 0 -13012861.155 -21920942.283 659828.883 10 0 60532 77400.00000 0 -13136443.869 -21704121.923 -2584115.152 10 0 60532 78300.00000 0 -13010673.662 -21158281.553 -5777817.092 10 0 60532 79200.00000 0 -12597092.904 -20327032.187 -8859189.710 10 0 60532 80100.00000 0 -11867918.146 -19262675.364 -11768342.648 10 0 60532 81000.00000 0 -10807449.910 -18023910.276 -14448749.955 10 0 60532 81900.00000 0 -9412980.354 -16673291.289 -16848350.198 10 0 60532 82800.00000 0 -7695159.803 -15274543.652 -18920557.500 10 0 60532 83700.00000 0 -5677806.063 -13889850.820 -20625163.973 10 0 60532 84600.00000 0 -3397163.809 -12577227.635 -21929116.354 10 0 60532 85500.00000 0 -900644.473 -11388089.587 -22807152.299 10 0 60533 0.00000 0 1754901.165 -10365119.868 -23242284.700 10 0 60533 900.00000 0 4505307.782 -9540522.446 -23226125.482 10 0 60533 1800.00000 0 7281526.392 -8934734.917 -22759042.810 10 0 60533 2700.00000 0 10012265.759 -8555652.272 -21850149.944 10 0 60533 3600.00000 0 12626731.907 -8398394.593 -20517125.602 10 0 60533 4500.00000 0 15057354.190 -8445626.950 -18785869.718 10 0 60533 5400.00000 0 17242385.298 -8668417.423 -16690001.093 10 0 60533 6300.00000 0 19128267.972 -9027596.636 -14270206.385 10 0 60533 7200.00000 0 20671670.785 -9475561.219 -11573452.679 10 0 60533 8100.00000 0 21841108.828 -9958444.992 -8652078.486 10 0 60533 9000.00000 0 22618082.602 -10418566.277 -5562780.434 10 0 60533 9900.00000 0 22997687.963 -10797047.925 -2365515.027 10 0 60533 10800.00000 0 22988672.182 -11036499.231 877663.386 10 0 60533 11700.00000 0 22612934.448 -11083646.366 4103805.905 10 0 60533 12600.00000 0 21904492.182 -10891799.796 7250290.133 10 0 60533 13500.00000 0 20907957.013 -10423054.062 10256035.166 10 0 60533 14400.00000 0 19676584.743 -9650126.354 13062686.783 10 0 60533 15300.00000 0 18269981.502 -8557755.525 15615749.677 10 0 60533 16200.00000 0 16751562.615 -7143601.630 17865644.716 10 0 60533 17100.00000 0 15185870.950 -5418606.960 19768670.826 10 0 60533 18000.00000 0 13635867.239 -3406802.134 21287852.935 10 0 60533 18900.00000 0 12160305.859 -1144563.967 22393659.817 10 0 60533 19800.00000 0 10811305.836 1320645.353 23064578.144 10 0 60533 20700.00000 0 9632218.546 3932006.544 23287531.811 10 0 60533 21600.00000 0 8655881.063 6625468.354 23058138.524 10 0 60533 22500.00000 0 7903327.985 9332182.305 22380798.607 10 0 60533 23400.00000 0 7383015.382 11981146.830 21268614.075 10 0 60533 24300.00000 0 7090589.092 14501951.713 19743139.161 10 0 60533 25200.00000 0 7009206.844 16827509.309 17833966.589 10 0 60533 26100.00000 0 7110400.419 18896659.260 15578157.030 10 0 60533 27000.00000 0 7355441.303 20656538.391 13019522.248 10 0 60533 27900.00000 0 7697152.041 22064617.048 10207775.350 10 0 60533 28800.00000 0 8082086.447 23090316.738 7197564.390 10 0 60533 29700.00000 0 8452986.109 23716141.464 4047408.037 10 0 60533 30600.00000 0 8751408.675 23938275.396 818554.186 10 0 60533 31500.00000 0 8920415.964 23766622.061 -2426215.809 10 0 60533 32400.00000 0 8907207.206 23224283.785 -5623813.396 10 0 60533 33300.00000 0 8665585.054 22346503.886 -8712075.003 10 0 60533 34200.00000 0 8158148.992 21179116.808 -11630975.365 10 0 60533 35100.00000 0 7358122.505 19776572.234 -14323797.773 10 0 60533 36000.00000 0 6250735.898 18199617.079 -16738238.017 10 0 60533 36900.00000 0 4834105.634 16512733.532 -18827420.304 10 0 60533 37800.00000 0 3119572.414 14781441.326 -20550805.494 10 0 60533 38700.00000 0 1131483.057 13069577.723 -21874974.319 10 0 60533 39600.00000 0 -1093575.357 11436669.250 -22774270.914 10 0 60533 40500.00000 0 -3508057.725 9935504.978 -23231294.850 10 0 60533 41400.00000 0 -6055206.729 8610012.238 -23237232.866 10 0 60533 42300.00000 0 -8671190.166 7493522.808 -22792024.508 10 0 60533 43200.00000 0 -11287541.577 6607500.994 -21904359.031 10 0 60533 44100.00000 0 -13833803.514 5960785.654 -20591503.940 10 0 60533 45000.00000 0 -16240264.277 5549376.740 -18878968.625 10 0 60533 45900.00000 0 -18440675.168 5356774.168 -16800009.487 10 0 60533 46800.00000 0 -20374835.969 5354853.862 -14394985.892 10 0 60533 47700.00000 0 -21990941.628 5505243.358 -11710579.034 10 0 60533 48600.00000 0 -23247593.044 5761138.516 -8798888.470 10 0 60533 49500.00000 0 -24115388.524 6069484.340 -5716423.423 10 0 60533 50400.00000 0 -24578029.775 6373427.573 -2523008.164 10 0 60533 51300.00000 0 -24632896.652 6614937.294 719377.423 10 0 60533 52200.00000 0 -24291066.756 6737482.416 3947799.688 10 0 60533 53100.00000 0 -23576779.428 6688652.639 7099591.986 10 0 60533 54000.00000 0 -22526366.949 6422611.723 10113570.513 10 0 60533 54900.00000 0 -21186697.830 5902278.810 12931221.485 10 0 60533 55800.00000 0 -19613197.736 5101145.010 15497836.443 10 0 60533 56700.00000 0 -17867531.111 4004647.794 17763573.639 10 0 60533 57600.00000 0 -16015040.697 2611044.254 19684424.976 10 0 60533 58500.00000 0 -14122052.136 931745.303 21223069.871 10 0 60533 59400.00000 0 -12253156.291 -1008904.543 22349599.757 10 0 60533 60300.00000 0 -10468582.674 -3174394.059 23042099.409 10 0 60533 61200.00000 0 -8821773.450 -5517328.278 23287074.017 10 0 60533 62100.00000 0 -7357258.966 -7981175.471 23079713.858 10 0 60533 63000.00000 0 -6108923.103 -10502406.647 22423991.362 10 0 60533 63900.00000 0 -5098730.504 -13012939.652 21332588.468 10 0 60533 64800.00000 0 -4335968.410 -15442787.065 19826655.311 10 0 60533 65700.00000 0 -3817034.339 -17722798.367 17935404.344 10 0 60533 66600.00000 0 -3525778.050 -19787382.568 15695547.233 10 0 60533 67500.00000 0 -3434382.888 -21577097.993 13150584.853 10 0 60533 68400.00000 0 -3504748.908 -23041001.122 10349963.672 10 0 60533 69300.00000 0 -3690318.911 -24138656.161 7348114.642 10 0 60533 70200.00000 0 -3938269.645 -24841721.028 4203393.207 10 0 60533 71100.00000 0 -4191974.821 -25135043.126 976941.173 10 0 60533 72000.00000 0 -4393634.917 -25017218.798 -2268506.928 10 0 60533 72900.00000 0 -4486961.506 -24500593.064 -5469849.161 10 0 60533 73800.00000 0 -4419801.474 -23610699.869 -8564848.648 10 0 60533 74700.00000 0 -4146589.063 -22385166.829 -11493348.374 10 0 60533 75600.00000 0 -3630521.017 -20872131.062 -14198444.084 10 0 60533 76500.00000 0 -2845361.981 -19128233.318 -16627591.974 10 0 60533 77400.00000 0 -1776803.132 -17216275.264 -18733629.384 10 0 60533 78300.00000 0 -423316.011 -15202638.728 -20475688.717 10 0 60533 79200.00000 0 1203535.073 -13154575.362 -21819987.136 10 0 60533 80100.00000 0 3079335.817 -11137480.268 -22740477.239 10 0 60533 81000.00000 0 5167610.411 -9212263.337 -23219346.750 10 0 60533 81900.00000 0 7421123.418 -7432927.557 -23247358.259 10 0 60533 82800.00000 0 9783641.402 -5844454.599 -22824023.095 10 0 60533 83700.00000 0 12192081.597 -4481084.842 -21957606.491 10 0 60533 84600.00000 0 14578958.868 -3365062.402 -20664964.278 10 0 60533 85500.00000 0 16875029.816 -2505896.273 -18971214.409 99